Time,TemperatureF,DewpointF,PressureIn,WindDirection,WindDirectionDegrees,WindSpeedMPH,WindSpeedGustMPH,Humidity,HourlyPrecipIn,Conditions,Clouds,dailyrainin,SoftwareType,DateUTC
2013-05-16 00:02:00,54.0,45.0,-100.00,WSW,238,17.0,27.0,72,0.00,,,0.00,,2013-05-16 04:02:00,
2013-05-16 00:12:00,54.0,45.0,-100.00,WSW,238,17.0,27.0,72,0.00,,,0.00,,2013-05-16 04:12:00,
2013-05-16 00:42:00,51.0,45.0,-100.00,SW,235,19.0,27.0,79,0.00,,,0.00,,2013-05-16 04:42:00,
2013-05-16 00:53:00,51.0,45.0,-100.00,SW,235,19.0,27.0,79,0.00,,,0.00,,2013-05-16 04:53:00,
2013-05-16 01:02:00,51.0,45.0,-100.00,SW,235,19.0,27.0,79,0.00,,,0.00,,2013-05-16 05:02:00,
2013-05-16 01:12:00,51.0,45.0,-100.00,SW,235,19.0,27.0,79,0.00,,,0.00,,2013-05-16 05:12:00,
2013-05-16 01:42:00,51.0,44.0,-100.00,SW,235,15.0,25.0,78,0.00,,,0.00,,2013-05-16 05:42:00,
2013-05-16 01:52:00,51.0,44.0,-100.00,SW,235,15.0,25.0,78,0.00,,,0.00,,2013-05-16 05:52:00,
2013-05-16 02:01:00,51.0,44.0,-100.00,SW,235,15.0,25.0,78,0.00,,,0.00,,2013-05-16 06:01:00,
2013-05-16 02:12:00,51.0,44.0,-100.00,SW,235,15.0,25.0,78,0.00,,,0.00,,2013-05-16 06:12:00,
2013-05-16 02:43:00,50.0,46.0,-100.00,WSW,240,16.0,25.0,85,0.00,,,0.00,,2013-05-16 06:43:00,
2013-05-16 02:53:00,50.0,46.0,-100.00,WSW,240,16.0,25.0,85,0.00,,,0.00,,2013-05-16 06:53:00,
2013-05-16 03:02:00,50.0,46.0,-100.00,WSW,240,16.0,25.0,85,0.00,,,0.00,,2013-05-16 07:02:00,
2013-05-16 03:12:00,50.0,46.0,-100.00,WSW,240,16.0,25.0,85,0.00,,,0.00,,2013-05-16 07:12:00,
2013-05-16 03:44:00,50.0,46.0,-100.00,SW,228,14.0,23.0,87,0.00,,,0.00,,2013-05-16 07:44:00,
2013-05-16 03:54:00,50.0,46.0,-100.00,SW,228,14.0,23.0,87,0.00,,,0.00,,2013-05-16 07:54:00,
2013-05-16 04:03:00,50.0,46.0,-100.00,SW,228,14.0,23.0,87,0.00,,,0.00,,2013-05-16 08:03:00,
2013-05-16 04:13:00,50.0,46.0,-100.00,SW,228,14.0,23.0,87,0.00,,,0.00,,2013-05-16 08:13:00,
2013-05-16 04:45:00,51.0,45.0,-100.00,SSW,210,12.0,19.0,81,0.00,,,0.00,,2013-05-16 08:45:00,
2013-05-16 04:55:00,51.0,45.0,-100.00,SSW,210,12.0,19.0,81,0.00,,,0.00,,2013-05-16 08:55:00,
2013-05-16 05:04:00,51.0,45.0,-100.00,SSW,210,12.0,19.0,81,0.00,,,0.00,,2013-05-16 09:04:00,
2013-05-16 05:14:00,51.0,45.0,-100.00,SSW,210,12.0,19.0,81,0.00,,,0.00,,2013-05-16 09:14:00,
2013-05-16 05:45:00,51.0,46.0,-100.00,SSW,212,14.0,20.0,82,0.00,,,0.00,,2013-05-16 09:45:00,
2013-05-16 05:55:00,51.0,46.0,-100.00,SSW,212,14.0,20.0,82,0.00,,,0.00,,2013-05-16 09:55:00,
2013-05-16 06:04:00,51.0,46.0,-100.00,SSW,212,14.0,20.0,82,0.00,,,0.00,,2013-05-16 10:04:00,
2013-05-16 06:14:00,51.0,46.0,-100.00,SSW,212,14.0,20.0,82,0.00,,,0.00,,2013-05-16 10:14:00,
2013-05-16 06:45:00,51.0,45.0,-100.00,North,-999,-999.0,52.0,81,0.00,,,0.00,,2013-05-16 10:45:00,
2013-05-16 06:56:00,51.0,45.0,-100.00,North,-999,-999.0,52.0,81,0.00,,,0.00,,2013-05-16 10:56:00,
2013-05-16 07:05:00,51.0,45.0,-100.00,North,-999,-999.0,52.0,81,0.00,,,0.00,,2013-05-16 11:05:00,
2013-05-16 07:14:00,51.0,45.0,-100.00,North,-999,-999.0,52.0,81,0.00,,,0.00,,2013-05-16 11:14:00,
2013-05-16 07:46:00,51.0,47.0,-100.00,SW,220,13.0,19.0,85,0.00,,,0.00,,2013-05-16 11:46:00,
2013-05-16 07:57:00,51.0,47.0,-100.00,SW,220,13.0,19.0,85,0.00,,,0.00,,2013-05-16 11:57:00,
2013-05-16 08:06:00,51.0,47.0,-100.00,SW,220,13.0,19.0,85,0.00,,,0.00,,2013-05-16 12:06:00,
2013-05-16 08:13:00,51.0,47.0,-100.00,SW,220,13.0,19.0,85,0.00,,,0.00,,2013-05-16 12:13:00,
2013-05-16 08:45:00,51.0,47.0,-100.00,SW,216,13.0,21.0,85,0.00,,,0.00,,2013-05-16 12:45:00,
2013-05-16 08:53:00,51.0,47.0,-100.00,SW,216,13.0,21.0,85,0.00,,,0.00,,2013-05-16 12:53:00,
2013-05-16 09:04:00,51.0,47.0,-100.00,SW,216,13.0,21.0,85,0.00,,,0.00,,2013-05-16 13:04:00,
2013-05-16 09:12:00,51.0,47.0,-100.00,SW,216,13.0,21.0,85,0.00,,,0.00,,2013-05-16 13:12:00,
2013-05-16 09:44:00,51.0,48.0,-100.00,SSW,210,16.0,22.0,88,0.00,,,0.00,,2013-05-16 13:44:00,
2013-05-16 09:55:00,51.0,48.0,-100.00,SSW,210,16.0,22.0,88,0.00,,,0.00,,2013-05-16 13:55:00,
2013-05-16 10:05:00,51.0,48.0,-100.00,SSW,210,16.0,22.0,88,0.00,,,0.00,,2013-05-16 14:05:00,
2013-05-16 10:15:00,51.0,48.0,-100.00,SSW,210,16.0,22.0,88,0.00,,,0.00,,2013-05-16 14:15:00,
2013-05-16 10:47:00,52.0,49.0,-100.00,SW,228,10.0,21.0,88,0.00,,,0.00,,2013-05-16 14:47:00,
2013-05-16 10:56:00,52.0,49.0,-100.00,SW,228,10.0,21.0,88,0.00,,,0.00,,2013-05-16 14:56:00,
2013-05-16 11:08:00,52.0,49.0,-100.00,SW,228,10.0,21.0,88,0.00,,,0.00,,2013-05-16 15:08:00,
2013-05-16 11:17:00,52.0,49.0,-100.00,SW,228,10.0,21.0,88,0.00,,,0.00,,2013-05-16 15:17:00,
2013-05-16 11:18:00,52.0,49.0,-100.00,SW,227,15.0,20.0,89,0.00,,,0.00,,2013-05-16 15:18:00,
2013-05-16 11:50:00,52.0,49.0,-100.00,SW,227,15.0,20.0,89,0.00,,,0.00,,2013-05-16 15:50:00,
2013-05-16 12:00:00,52.0,49.0,-100.00,SW,227,15.0,20.0,89,0.00,,,0.00,,2013-05-16 16:00:00,
2013-05-16 12:09:00,52.0,49.0,-100.00,SW,227,15.0,20.0,89,0.00,,,0.00,,2013-05-16 16:09:00,
2013-05-16 12:18:00,52.0,49.0,-100.00,SSW,207,12.0,21.0,90,0.00,,,-99.99,,2013-05-16 16:18:00,
2013-05-16 12:51:00,52.0,49.0,-100.00,SSW,207,12.0,21.0,90,0.00,,,-99.99,,2013-05-16 16:51:00,
2013-05-16 13:00:00,52.0,49.0,-100.00,SSW,207,12.0,21.0,90,0.00,,,-99.99,,2013-05-16 17:00:00,
2013-05-16 13:10:00,52.0,49.0,-100.00,SSW,207,12.0,21.0,90,0.00,,,-99.99,,2013-05-16 17:10:00,
2013-05-16 13:18:00,53.0,50.0,-100.00,SW,233,12.0,17.0,90,0.00,,,0.00,,2013-05-16 17:18:00,
2013-05-16 13:50:00,-999.0,-99.9,-100.00,SW,233,12.0,17.0,90,0.00,,,0.00,,2013-05-16 17:50:00,
2013-05-16 14:00:00,-999.0,-99.9,-100.00,SW,233,12.0,17.0,90,0.00,,,0.00,,2013-05-16 18:00:00,
2013-05-16 14:10:00,53.0,50.0,-100.00,SW,233,12.0,17.0,90,0.00,,,0.00,,2013-05-16 18:10:00,
2013-05-16 14:18:00,56.0,50.0,-100.00,SW,220,12.0,20.0,81,0.00,,,0.00,,2013-05-16 18:18:00,
2013-05-16 14:50:00,-999.0,-99.9,-100.00,SW,220,12.0,20.0,81,0.00,,,0.00,,2013-05-16 18:50:00,
2013-05-16 15:00:00,-999.0,-99.9,-100.00,SW,220,12.0,20.0,81,0.00,,,0.00,,2013-05-16 19:00:00,
2013-05-16 15:10:00,56.0,50.0,-100.00,SW,220,12.0,20.0,81,0.00,,,0.00,,2013-05-16 19:10:00,
2013-05-16 15:18:00,57.0,-99.9,-100.00,SW,228,12.0,19.0,79,0.00,,,0.00,,2013-05-16 19:18:00,
2013-05-16 15:51:00,-999.0,-99.9,-100.00,SW,228,12.0,19.0,79,0.00,,,0.00,,2013-05-16 19:51:00,
2013-05-16 16:00:00,-999.0,-99.9,-100.00,SW,228,12.0,19.0,79,0.00,,,0.00,,2013-05-16 20:00:00,
2013-05-16 16:10:00,-999.0,-99.9,-100.00,SW,228,12.0,19.0,79,0.00,,,0.00,,2013-05-16 20:10:00,
2013-05-16 16:18:00,61.0,51.0,-100.00,WSW,239,14.0,22.0,70,0.00,,,0.00,,2013-05-16 20:18:00,
2013-05-16 16:51:00,61.0,51.0,-100.00,WSW,239,14.0,22.0,70,0.00,,,0.00,,2013-05-16 20:51:00,
2013-05-16 17:00:00,61.0,-99.9,-100.00,WSW,239,14.0,22.0,70,0.00,,,0.00,,2013-05-16 21:00:00,
2013-05-16 17:10:00,61.0,-99.9,-100.00,WSW,239,14.0,22.0,70,0.00,,,0.00,,2013-05-16 21:10:00,
2013-05-16 17:18:00,64.0,50.0,-100.00,SW,233,16.0,26.0,61,0.00,,,0.00,,2013-05-16 21:18:00,
2013-05-16 18:00:00,-999.0,-99.9,-100.00,SW,233,16.0,26.0,61,0.00,,,0.00,,2013-05-16 22:00:00,
2013-05-16 18:08:00,64.0,50.0,-100.00,SW,233,16.0,26.0,61,0.00,,,0.00,,2013-05-16 22:08:00,
2013-05-16 18:51:00,63.0,48.0,-100.00,WSW,246,18.0,28.0,57,0.00,,,0.00,,2013-05-16 22:51:00,
2013-05-16 19:01:00,63.0,48.0,-100.00,WSW,246,18.0,28.0,57,0.00,,,0.00,,2013-05-16 23:01:00,
2013-05-16 19:06:00,63.0,48.0,-100.00,WSW,246,18.0,28.0,57,0.00,,,0.00,,2013-05-16 23:06:00,
2013-05-16 19:16:00,63.0,48.0,-100.00,WSW,246,18.0,28.0,57,0.00,,,0.00,,2013-05-16 23:16:00,
2013-05-16 19:45:00,61.0,46.0,-100.00,WSW,246,23.0,31.0,57,0.00,,,0.00,,2013-05-16 23:45:00,
2013-05-16 19:54:00,61.0,46.0,-100.00,WSW,246,23.0,31.0,57,0.00,,,0.00,,2013-05-16 23:54:00,
2013-05-16 20:02:00,61.0,46.0,-100.00,WSW,246,23.0,31.0,57,0.00,,,0.00,,2013-05-17 00:02:00,
2013-05-16 20:13:00,61.0,46.0,-100.00,WSW,246,23.0,31.0,57,0.00,,,0.00,,2013-05-17 00:13:00,
2013-05-16 20:44:00,60.0,45.0,-100.00,WSW,239,16.0,30.0,57,0.00,,,0.00,,2013-05-17 00:44:00,
2013-05-16 20:53:00,60.0,45.0,-100.00,WSW,239,16.0,30.0,57,0.00,,,0.00,,2013-05-17 00:53:00,
2013-05-16 21:03:00,60.0,45.0,-100.00,WSW,239,16.0,30.0,57,0.00,,,0.00,,2013-05-17 01:03:00,
2013-05-16 21:12:00,60.0,45.0,-100.00,WSW,239,16.0,30.0,57,0.00,,,0.00,,2013-05-17 01:12:00,
2013-05-16 21:44:00,58.0,44.0,-100.00,WSW,241,19.0,33.0,60,0.00,,,-99.99,,2013-05-17 01:44:00,
2013-05-16 21:52:00,58.0,44.0,-100.00,WSW,241,19.0,33.0,60,0.00,,,-99.99,,2013-05-17 01:52:00,
2013-05-16 22:02:00,58.0,44.0,-100.00,WSW,241,19.0,33.0,60,0.00,,,-99.99,,2013-05-17 02:02:00,
2013-05-16 22:11:00,58.0,44.0,-100.00,WSW,241,19.0,33.0,60,0.00,,,-99.99,,2013-05-17 02:11:00,
2013-05-16 22:33:00,55.0,45.0,-100.00,WSW,242,21.0,30.0,70,0.00,,,0.00,,2013-05-17 02:33:00,
2013-05-16 22:42:00,55.0,45.0,-100.00,WSW,242,21.0,30.0,70,0.00,,,0.00,,2013-05-17 02:42:00,
2013-05-16 22:53:00,55.0,45.0,-100.00,WSW,242,21.0,30.0,70,0.00,,,0.00,,2013-05-17 02:53:00,
2013-05-16 23:01:00,55.0,45.0,-100.00,WSW,242,21.0,30.0,70,0.00,,,0.00,,2013-05-17 03:01:00,
2013-05-16 23:11:00,55.0,45.0,-100.00,WSW,242,21.0,30.0,70,0.00,,,0.00,,2013-05-17 03:11:00,
2013-05-16 23:43:00,52.0,46.0,-100.00,WSW,238,18.0,30.0,81,0.00,,,0.00,,2013-05-17 03:43:00,
2013-05-16 23:53:00,52.0,46.0,-100.00,WSW,238,18.0,30.0,81,0.00,,,0.00,,2013-05-17 03:53:00,